Regional Weather Roundup
Issued by NWS

Home | Current Version | Previous Version | Graphics & Text | Print | Product List | Glossary On
Versions: 1 2 3 4 5 6 7 8 9 10 11 12 13 14 15 16 17 18 19 20 21 22 23 24 25 26 27 28 29 30 31 32 33 34 35 36 37 38 39 40 41 42 43 44 45 46 47 48 49 50
000
ASUS43 KMPX 170801
RWRMN
WEATHER ROUNDUP FOR MINNESOTA
NATIONAL WEATHER SERVICE TWIN CITIES/CHANHASSEN MN
300 AM CDT WED SEP 17 2014


NOTE: "FAIR" INDICATES FEW OR NO CLOUDS BELOW 12,000 FEET WITH NO
SIGNIFICANT WEATHER AND/OR OBSTRUCTIONS TO VISIBILITY. N/A MEANS
CURRENT SKY AND/OR WEATHER CONDITIONS ARE NOT AVAILABLE.

MNZ060>063-068>070-170900-
   Twin Cities Metro

CITY           SKY/WX    TMP DP  RH WIND       PRES   REMARKS
TWIN CITIES    CLOUDY    56  47  71 E5        29.98R
ST PAUL        CLOUDY    54  49  83 SE6       29.98F
CRYSTAL        CLOUDY    57  47  69 S3        29.96S
BLAINE         CLOUDY    55  52  88 S5        29.96F
LAKEVILLE      CLOUDY    54  48  82 CALM      29.98S
EDEN PRAIRIE   CLOUDY    57  48  72 SW6       29.96S
SOUTH ST PAUL  CLOUDY    55  49  81 CALM      29.98S
LAKE ELMO      CLOUDY    52  48  87 S3        29.99S
$$
MNZ001>005-007-008-013>017-022>024-027-028-170900-
   Northwest Minnesota

CITY           SKY/WX    TMP DP  RH WIND       PRES   REMARKS
BEMIDJI        CLEAR     47  41  81 CALM      29.92S
HALLOCK        PTCLDY    45  41  87 S7        29.88S
ROSEAU         CLEAR     54  45  71 NW7       29.90R
WARROAD        PTCLDY    52  45  76 NW7       29.92R
THIEF RVR FALL CLEAR     50  43  76 S3        29.91S
CROOKSTON      CLEAR     46  43  87 S3        29.91S
FOSSTON        CLEAR     45  41  87 S3        29.92S
DETROIT LAKES  CLEAR     52  46  82 SE3       29.93S
MOORHEAD       CLEAR     54  52  94 S5        29.90F
PARK RAPIDS    CLEAR     42  39  89 S3        29.93F
MAHNOMEN       FAIR      49  43  81 SE5       29.91S
$$
MNZ006-009>011-018-025>026-170900-
   North Central Minnesota

CITY           SKY/WX    TMP DP  RH WIND       PRES   REMARKS
BAUDETTE       MOCLDY    53  43  68 SW9       29.88R
FLAG ISLAND    CLOUDY    52  46  82 NE12      29.91R
INTL FALLS     CLOUDY    52  43  71 SW7       29.87R
WASKISH        PTCLDY    50  45  81 CALM      29.90S
BIG FORK       PTCLDY    45  43  93 SW1       29.92S
LONGVILLE      CLEAR     43  41  93 CALM      29.93S
GRAND RAPIDS   CLEAR     46  39  76 S7        29.93S
CRANE LAKE     CLOUDY    54  45  71 SW3       29.89S
ORR            MOCLDY    52  41  66 SW3       29.88R
COOK           MOCLDY    52  45  76 SW6       29.90S
WALKER         FAIR      48  42  78 CALM      29.92F
$$
MNZ012-019>021-037-170900-
   Northeast Minnesota

CITY           SKY/WX    TMP DP  RH WIND       PRES   REMARKS
DULUTH         CLEAR     50  41  71 W6        29.94F
ELY            MOCLDY    52  43  71 SW3       29.90S
HIBBING        PTCLDY    41  38  89 CALM      29.92F
EVELETH        PTCLDY    46  41  81 SW5       29.93S
DULUTH HARBOR  CLEAR     54  46  76 W6        29.95S
TWO HARBORS    PTCLDY    43  39  87 CALM      29.93F
SILVER BAY     PTCLDY    45  45 100 CALM      29.92F
GRAND MARAIS     N/A     48  43  82 VRB5      29.94F
G MARAIS ARPRT CLOUDY    41  37  87 CALM      29.93F
$$
MNZ029>031-032-039>041-046>048-054>057-064-170900-
   West Central Minnesota

CITY           SKY/WX    TMP DP  RH WIND       PRES   REMARKS
FERGUS FALLS   CLEAR     54  46  76 S7        29.92F
WHEATON        CLEAR     46  45  93 SE5       29.93S
MORRIS         CLEAR     48  46  93 SE6       29.92S
ALEXANDRIA     MOCLDY    51  47  86 S3        29.95S
ELBOW LAKE     FAIR      52  48  84 SE7       29.92S
WADENA         CLEAR     45  43  93 CALM      29.92F
GLENWOOD       CLEAR     50  46  87 CALM      29.95S
APPLETON       CLEAR     55  48  76 S3        29.92S
BENSON         CLEAR     50  48  93 S5        29.93F
ORTONVILLE     CLEAR     52  46  82 SE3       29.91F
MADISON        CLEAR     55  52  88 SE5       29.92F
WILLMAR        MOCLDY    55  48  76 SE3       29.96S
$$
MNZ033>034-036-042>043-049>051-058-059-170900-
   Central Minnesota

CITY           SKY/WX    TMP DP  RH WIND       PRES   REMARKS
ST CLOUD       PTCLDY    51  47  86 CALM      29.95F
SAUK CENTRE    PTSUNNY   48  45  91 SE3       29.95S
PAYNESVILLE    CLOUDY    49  49  97 SE5       29.95F
AITKIN         MOCLDY    46  43  87 CALM      29.92F
PINE RIVER     CLEAR     39  39 100 CALM      29.97F
BRAINERD       CLEAR     43  42  97 CALM      29.94F
STAPLES        CLEAR     43  43 100 CALM      29.93F
LONG PRAIRIE   MOCLDY    45  43  93 CALM      29.95S
LITTLE FALLS   CLEAR     43  41  93 CALM      29.95S
LITCHFIELD     CLOUDY    57  54  88 CALM      29.96S
BUFFALO        CLOUDY    56  47  73 CALM      29.97S
MAPLE LAKE     CLOUDY    56  51  80 S3        29.97S
$$
MNZ037-044-045-052-053-170900-
   East Central Minnesota

CITY           SKY/WX    TMP DP  RH WIND       PRES   REMARKS
PRINCETON      PTCLDY    54  48  82 CALM      29.95F
MORA           PTCLDY    43  43 100 CALM      29.97F FOG
CAMBRIDGE      MOCLDY    54  45  71 SE3       29.94F
RUSH CITY      CLOUDY    48  45  91 S5        29.96F
MOOSE LAKE     CLEAR     37  37 100 CALM      29.94S FOG
HINCKLEY       FAIR      39  39 100 CALM      29.96F
CLOQUET        CLEAR     48  41  76 SW5       29.94S
MCGREGOR       CLEAR     45  43  93 S3        29.95S
$$
MNZ071>073-080-081-089-090-097-098-170900-
   Southwest Minnesota

CITY           SKY/WX    TMP DP  RH WIND       PRES   REMARKS
MONTEVIDEO     PTCLDY    55  50  82 S5        29.94S
GRANITE FALLS  PTCLDY    54  50  86 SE5       29.95S
CANBY          PTCLDY    58  49  71 SW5       29.93S
MARSHALL       PTCLDY    57  48  72 S9        29.92F
REDWOOD FALLS  CLOUDY    57  51  80 S8        29.94F
OLIVIA         MOCLDY    57  50  77 S5        29.94F
PIPESTONE      PTCLDY    54  48  82 S5        29.95F
WINDOM         CLOUDY    57  48  72 S3        29.97F
WORTHINGTON    CLOUDY    55  48  76 S7        29.98S
JACKSON        CLOUDY    55  46  71 S7        29.98F
TRACY          CLOUDY    59  50  73 S8        29.95F
SLAYTON        CLOUDY    56  49  80 CALM      29.97F
$$
MNZ065>067-074>077-082>085-091>093-170900-
   South Central Minnesota

CITY           SKY/WX    TMP DP  RH WIND       PRES   REMARKS
MANKATO        CLOUDY    54  45  71 S6        29.98F
NEW ULM        CLOUDY    55  52  88 S6        29.96F
ST JAMES       CLOUDY    55  48  76 S3        29.98F
FAIRMONT       CLOUDY    52  45  76 S6        29.99S
GLENCOE        CLOUDY    58  47  67 S3        29.96S
FARIBAULT      CLOUDY    57  45  62 S5        29.99S
OWATONNA       CLOUDY    54  46  76 S7        29.99F
WASECA         CLOUDY    50  43  76 S3        30.01S
ALBERT LEA     CLOUDY    54  46  76 S5        30.00S
$$
MNZ078>079-086>088-094>096-170900-
   Southeast Minnesota

CITY           SKY/WX    TMP DP  RH WIND       PRES   REMARKS
ROCHESTER      CLOUDY    49  46  90 S7        30.02S
RED WING       CLOUDY    54  48  82 CALM      29.98F
STANTON        CLOUDY    55  47  74 S3        29.98S
DODGE CENTER   CLOUDY    54  46  76 S6        30.01S
WINONA         CLEAR     48  48 100 CALM      30.02F
AUSTIN         CLOUDY    46  45  93 CALM      30.01S
PRESTON        CLOUDY    48  47  97 SW5       30.02F
$$
ABBREVIATIONS USED IN REMARKS
   TC - TEMPERATURES IN CELSIUS
  WCI - WIND CHILL INDEX
   HX - HEAT INDEX
  VSB - VISIBILITY
$$


USA.gov is the U.S. government's official web portal to all federal, state and local government web resources and services.